Date String (YYYY-MM-DD hh:mm:ss) UTC,Instrument flags,Ambient pressure (hPa),Sample flow (lpm),Bypass flow (lpm),Sample temperature (°C),Ambient temperature (°C),ASC tube jacket temperature (°C),LED temperature (°C),Box temperature (°C),Sample RH (%),Span deviation,Mass concentration (μg/m³),Mass concentration (μg/m³),Mass concentration (μg/m³)
DateTimeUTC,F1_M11,P_M11,Q1_M11,Q2_M11,T1_M11,T2_M11,T3_M11,T4_M11,T5_M11,U1_M11,ZSPAN_M11,X0_M11,X2_M11,X1_M11
2022-12-21 23:00:00,,0815.1,4.98,0.00,21.4,20.0,00.0,30.3,23.0,15.6,0000.0,0003.05,0001.16,0000.66
2022-12-21 23:01:00,,0815.1,4.96,0.00,21.3,20.0,00.0,30.3,23.0,13.9,0000.0,0002.70,0001.14,0000.65
2022-12-21 23:02:00,,0815.1,5.02,0.00,21.4,20.0,00.0,30.3,23.0,13.3,0000.0,0002.53,0001.10,0000.65
2022-12-21 23:03:00,,0815.1,5.01,0.00,21.3,20.0,00.0,30.3,23.1,13.1,0000.0,0002.58,0001.09,0000.64
2022-12-21 23:04:00,,0815.0,5.01,0.00,21.3,20.0,00.0,30.3,23.1,12.9,0000.0,0002.68,0001.10,0000.64
2022-12-21 23:05:00,,0815.1,4.96,0.00,21.4,20.0,00.0,30.3,23.2,12.7,0000.0,0002.54,0001.06,0000.63
2022-12-21 23:06:00,,0815.1,4.99,0.00,21.4,20.0,00.0,30.3,23.2,12.9,0000.0,0003.07,0001.04,0000.62
2022-12-21 23:07:00,,0815.3,5.03,0.00,21.3,20.1,00.0,30.3,23.2,12.9,0000.0,0003.40,0001.06,0000.61
2022-12-21 23:08:00,,0815.3,5.02,0.00,21.3,20.0,00.0,30.3,23.1,12.9,0000.0,0003.41,0001.09,0000.61
2022-12-21 23:09:00,,0815.3,4.96,0.00,21.3,19.9,00.0,30.3,23.1,13.0,0000.0,0003.40,0001.09,0000.60
2022-12-21 23:10:00,,0815.3,4.99,0.00,21.3,19.9,00.0,30.3,23.1,13.0,0000.0,0003.50,0001.10,0000.60
2022-12-21 23:11:00,,0815.3,5.02,0.00,21.3,19.9,00.0,30.3,23.1,13.0,0000.0,0003.43,0001.08,0000.60
2022-12-21 23:12:00,,0815.4,5.03,0.00,21.3,20.0,00.0,30.3,23.1,13.3,0000.0,0003.38,0001.06,0000.59
2022-12-21 23:13:00,,0815.4,5.01,0.00,21.3,20.1,00.0,30.3,23.2,13.6,0000.0,0003.41,0001.04,0000.59
2022-12-21 23:14:00,,0815.8,4.96,0.00,21.4,20.2,00.0,30.3,23.2,13.9,0000.0,0003.39,0001.04,0000.58
2022-12-21 23:15:00,,0816.0,5.00,0.00,21.4,20.2,00.0,30.3,23.3,13.9,0000.0,0003.35,0001.04,0000.58
2022-12-21 23:16:00,,0815.9,5.03,0.00,21.4,20.2,00.0,30.3,23.2,11.9,0000.0,0016.62,0002.55,0000.78
2022-12-21 23:17:00,,0815.8,5.01,0.00,21.3,19.7,00.0,30.3,23.0,08.0,0000.0,0063.63,0007.42,0001.78
2022-12-21 23:18:00,,0816.1,4.97,0.00,21.3,19.7,00.0,30.2,23.1,06.8,0000.0,0107.00,0012.77,0002.94
2022-12-21 23:19:00,,0816.3,4.98,0.00,21.4,20.5,00.0,30.1,23.3,06.3,0000.0,0146.76,0017.27,0003.62
2022-12-21 23:20:00,,0816.5,5.02,0.00,21.5,21.2,00.0,30.1,23.4,06.0,0000.0,0183.03,0021.30,0004.16
2022-12-21 23:21:00,,0816.6,5.02,0.00,21.6,21.8,00.0,30.1,23.6,05.7,0000.1,0216.50,0024.39,0004.58
2022-12-21 23:22:00,,0816.9,4.96,0.00,21.7,22.2,00.0,30.2,23.8,05.5,0001.1,0248.38,0027.63,0005.04
2022-12-21 23:23:00,,0816.8,5.02,0.00,21.7,21.6,00.0,30.3,23.6,05.3,0000.9,0273.85,0030.74,0005.49
2022-12-21 23:24:00,,0817.0,5.00,0.00,21.6,20.6,00.0,30.3,23.4,05.3,0001.0,0298.82,0033.41,0005.92
2022-12-21 23:25:00,,0817.4,4.98,0.00,21.6,20.3,00.0,30.3,23.2,05.1,0001.4,0321.79,0035.67,0006.33
2022-12-21 23:26:00,,0817.4,4.99,0.00,21.6,20.9,00.0,30.3,23.4,05.0,0000.5,0337.79,0037.80,0006.73
2022-12-21 23:27:00,,0817.5,5.03,0.00,21.7,21.5,00.0,30.3,23.6,04.8,0000.3,0348.98,0039.10,0007.04
2022-12-21 23:28:00,,0817.4,4.98,0.00,21.8,22.1,00.0,30.3,23.8,04.7,0000.3,0317.78,0036.87,0006.92
2022-12-21 23:29:00,,0817.4,5.01,0.00,21.9,22.5,00.0,30.3,24.0,04.7,-000.4,0283.71,0033.13,0006.63
2022-12-21 23:30:00,,0817.5,5.02,0.00,22.0,22.8,00.0,30.4,24.1,04.6,-000.5,0257.34,0030.11,0006.38
2022-12-21 23:31:00,,0817.8,4.99,0.00,22.1,23.0,00.0,30.5,24.2,04.6,-000.5,0230.93,0027.69,0006.20
2022-12-21 23:32:00,,0818.2,4.99,0.00,22.1,22.3,00.0,30.6,24.1,04.5,-000.1,0203.10,0025.74,0006.03
2022-12-21 23:33:00,,0818.5,4.99,0.00,22.0,21.3,00.0,30.6,23.8,04.5,0001.0,0183.21,0023.89,0005.88
2022-12-21 23:34:00,,0818.9,5.02,0.00,22.0,21.3,00.0,30.6,23.8,04.5,0001.4,0169.16,0021.98,0005.74
2022-12-21 23:35:00,,0818.9,5.01,0.00,22.1,21.9,00.0,30.6,24.0,04.4,0001.4,0159.38,0020.89,0005.65
2022-12-21 23:36:00,,0818.9,4.96,0.00,22.2,22.4,00.0,30.7,24.2,04.3,0001.4,0149.11,0019.96,0005.56
2022-12-21 23:37:00,,0818.8,5.01,0.00,22.3,22.8,00.0,30.7,24.3,04.3,0002.0,0141.45,0019.00,0005.47
2022-12-21 23:38:00,,0818.9,5.04,0.00,22.4,23.1,00.0,30.8,24.5,04.2,0002.0,0134.85,0018.51,0005.42
2022-12-21 23:39:00,,0819.2,4.97,0.00,22.4,22.5,00.0,30.9,24.3,04.2,0002.1,0132.18,0018.01,0005.37
2022-12-21 23:40:00,,0819.8,5.00,0.00,22.3,21.6,00.0,30.9,24.0,04.1,0002.2,0128.32,0017.53,0005.28
2022-12-21 23:41:00,,0820.0,5.01,0.00,22.2,20.8,00.0,30.9,23.8,04.1,0001.8,0126.22,0017.15,0005.22
2022-12-21 23:42:00,,0820.0,5.02,0.00,22.2,21.2,00.0,30.9,23.9,04.1,0002.2,0126.16,0016.60,0005.14
2022-12-21 23:43:00,,0819.9,4.97,0.00,22.3,22.1,00.0,30.9,24.1,04.1,0002.3,0127.37,0016.03,0005.09
2022-12-21 23:44:00,,0820.0,5.01,0.00,22.4,22.6,00.0,30.9,24.3,04.1,0001.2,0126.35,0015.63,0005.03
2022-12-21 23:45:00,,0820.4,5.03,0.00,22.4,22.0,00.0,31.0,24.2,04.1,0000.3,0123.79,0015.48,0004.99
2022-12-21 23:46:00,,0820.6,4.95,0.00,22.3,21.3,00.0,31.0,24.0,04.1,0000.0,0119.16,0015.24,0004.95
2022-12-21 23:47:00,,0820.3,5.01,0.00,22.2,20.7,00.0,31.0,23.8,04.1,-000.4,0112.43,0014.87,0004.91
2022-12-21 23:48:00,,0820.0,5.01,0.00,22.1,20.2,00.0,31.0,23.6,04.1,-000.1,0111.71,0014.72,0004.87
2022-12-21 23:49:00,,0820.4,5.01,0.00,22.0,19.8,00.0,31.0,23.4,04.1,-000.4,0110.73,0014.58,0004.82
2022-12-21 23:50:00,,0820.8,5.00,0.00,22.0,20.4,00.0,30.9,23.5,04.1,-001.1,0108.95,0014.56,0004.81
2022-12-21 23:51:00,,0820.9,4.96,0.00,22.1,21.4,00.0,30.9,23.8,04.0,-000.3,0110.75,0014.55,0004.81
2022-12-21 23:52:00,,0820.7,5.01,0.00,22.2,22.1,00.0,30.9,24.0,04.0,0000.9,0111.34,0014.39,0004.77
2022-12-21 23:53:00,,0820.7,5.03,0.00,22.2,21.6,00.0,30.9,23.9,04.0,-000.9,0107.36,0014.28,0004.75
2022-12-21 23:54:00,,0821.2,4.94,0.00,22.1,21.0,00.0,31.0,23.7,04.0,-001.5,0102.91,0014.11,0004.71
2022-12-21 23:55:00,,0821.4,5.02,0.00,22.0,20.6,00.0,31.0,23.6,04.1,0000.7,0098.01,0013.95,0004.68
2022-12-21 23:56:00,,0821.3,5.02,0.00,22.0,20.3,00.0,31.0,23.5,04.1,0001.6,0095.67,0013.74,0004.64
2022-12-21 23:57:00,,0821.3,5.03,0.00,21.9,19.9,00.0,30.9,23.4,04.1,0001.9,0094.40,0013.40,0004.59
2022-12-21 23:58:00,,0821.4,5.00,0.00,21.8,19.6,00.0,30.9,23.2,04.1,0002.2,0094.96,0013.18,0004.56
2022-12-21 23:59:00,,0821.5,4.98,0.00,21.7,19.5,00.0,30.8,23.2,04.1,0002.0,0094.93,0012.96,0004.51
